Aalborg, Denmark

12:37 AM CEST on March 30, 2017 (GMT +0200)
Aalborg

Weather History for EKYT - June, 2013

Change the Weather History Date:

Thursday, June 13, 2013

  Actual Average Record
Temperature  
Mean Temperature 61 °F -  
Max Temperature 66 °F 67 °F 86 °F (2006)
Min Temperature 56 °F 51 °F 41 °F (2005)
Degree Days  
Heating Degree Days 4    
Growing Degree Days 11 (Base 50)    
Moisture  
Dew Point 56 °F    
Average Humidity 84    
Maximum Humidity 100    
Minimum Humidity 64    
Precipitation  
Precipitation 0.12 in - - ()
Sea Level Pressure  
Sea Level Pressure 29.72 in    
Wind  
Wind Speed 13 mph ()    
Max Wind Speed 24 mph    
Max Gust Speed -    
Visibility 6.3 miles    
Events Rain    
Averages and records for this station are not official NWS values.
T = Trace of Precipitation, MM = Missing Value Source: Averaged Metar Reports

Daily Weather History Graph

Daily Weather History Graph

Search for Another Location

Airport or City:

Trip Planner

Search our weather history database for the weather conditions in past years. The results will help you decide how hot, cold, wet, or windy it might be!

Date:

Astronomy

Jun. 13, 2013 Rise Set
Actual Time 4:25 AM CEST 10:16 PM CEST
Civil Twilight 3:17 AM CEST 11:24 PM CEST
Nautical Twilight 1:52 AM CEST 12:48 AM CEST
Astronomical Twilight Sun does not rise Sun does not rise
Moon 9:35 AM CEST (6/13) No Moon Set
Length of Visible Light 20h 06m
Length of Day
17h 50m
Waxing Crescent, 19% of the Moon is Illuminated
Jun 13
Waxing Crescent
Jun 16
First Quarter
Jun 23
Full
Jun 30
Last Quarter
Jul 8
New

Hourly Weather History & Observations

Time (CEST) Temp. Dew Point Humidity Pressure Visibility Wind Dir Wind Speed Gust Speed Precip Events Conditions
12:20 AM 59.0 °F 55.4 °F 88% 29.86 in 6.2 mi SSW 16.1 mph - N/A   Mostly Cloudy
12:50 AM 59.0 °F 55.4 °F 88% 29.86 in 6.2 mi South 12.7 mph - N/A   Mostly Cloudy
1:20 AM 59.0 °F 55.4 °F 88% 29.83 in 6.2 mi South 12.7 mph - N/A   Mostly Cloudy
1:50 AM 59.0 °F 55.4 °F 88% 29.83 in 6.2 mi SSW 12.7 mph - N/A   Mostly Cloudy
2:00 AM 58 °F 55 °F 86% 29.85 in 7 mi South 6.9 mph - -   Partly Cloudy
2:20 AM 57.2 °F 55.4 °F 94% 29.83 in 6.2 mi South 8.1 mph - N/A   Mostly Cloudy
2:50 AM 57.2 °F 55.4 °F 94% 29.83 in 6.2 mi South 10.4 mph - N/A   Mostly Cloudy
3:20 AM 57.2 °F 53.6 °F 88% 29.83 in 6.2 mi South 9.2 mph - N/A   Mostly Cloudy
3:50 AM 57.2 °F 55.4 °F 94% 29.80 in 4.3 mi SSW 11.5 mph - N/A Rain Rain
4:20 AM 57.2 °F 55.4 °F 94% 29.80 in 6.2 mi SSW 9.2 mph - N/A Rain Light Rain
4:50 AM 57.2 °F 55.4 °F 94% 29.77 in 6.2 mi South 5.8 mph - N/A Rain Light Rain
5:00 AM 57 °F 56 °F 93% 29.79 in 5 mi SE 4.6 mph - - Rain Light Rain
5:20 AM 57.2 °F 55.4 °F 94% 29.77 in 5.0 mi SSE 6.9 mph - N/A Rain Light Rain
5:50 AM 59.0 °F 57.2 °F 94% 29.74 in 3.7 mi SE 6.9 mph - N/A Rain Rain
6:20 AM 59.0 °F 57.2 °F 94% 29.74 in 1.9 mi SSE 9.2 mph - N/A Rain Rain
6:50 AM 59.0 °F 57.2 °F 94% 29.71 in 4.3 mi SE 9.2 mph - N/A Rain Rain
7:20 AM 60.8 °F 59.0 °F 94% 29.71 in 5.6 mi SSE 11.5 mph - N/A Rain Light Rain
7:50 AM 60.8 °F 59.0 °F 94% 29.71 in 2.8 mi South 12.7 mph - N/A Rain Light Rain
8:00 AM 61 °F 60 °F 94% 29.70 in 3 mi South 12.7 mph - - Rain Light Rain
8:20 AM 60.8 °F 60.8 °F 100% 29.68 in 6.2 mi South 11.5 mph - N/A Rain Light Rain
8:50 AM 62.6 °F 60.8 °F 94% 29.68 in 6.2 mi South 16.1 mph - N/A Rain Light Rain
9:20 AM 62.6 °F 60.8 °F 94% 29.68 in 6.2 mi SSW 13.8 mph - N/A Rain Light Rain
9:50 AM 62.6 °F 60.8 °F 94% 29.68 in 3.7 mi SSW 11.5 mph - N/A   Mostly Cloudy
10:20 AM 62.6 °F 60.8 °F 94% 29.68 in 3.7 mi SSW 17.3 mph - N/A   Mostly Cloudy
10:50 AM 62.6 °F 60.8 °F 94% 29.68 in 5.0 mi SSW 17.3 mph - N/A Rain Light Rain
11:00 AM 63 °F 60 °F 89% 29.68 in 5 mi SSW 16.1 mph - - Rain Light Rain
11:20 AM 62.6 °F 60.8 °F 94% 29.68 in 6.2 mi SSW 19.6 mph - N/A   Mostly Cloudy
11:50 AM 62.6 °F 59.0 °F 88% 29.68 in 6.2 mi SSW 18.4 mph - N/A   Mostly Cloudy
12:20 PM 64.4 °F 59.0 °F 83% 29.68 in 6.2 mi SW 20.7 mph - N/A   Mostly Cloudy
12:50 PM 62.6 °F 57.2 °F 82% 29.68 in 6.2 mi SW 20.7 mph - N/A   Mostly Cloudy
1:20 PM 64.4 °F 59.0 °F 83% 29.68 in 6.2 mi SW 23.0 mph - N/A   Mostly Cloudy
1:50 PM 64.4 °F 57.2 °F 77% 29.68 in 6.2 mi SW 23.0 mph - N/A   Mostly Cloudy
2:00 PM 64 °F 56 °F 70% 29.69 in 12 mi SW 19.6 mph - -   Mostly Cloudy
2:20 PM 64.4 °F 57.2 °F 77% 29.68 in 6.2 mi WSW 23.0 mph - N/A   Mostly Cloudy
2:50 PM 66.2 °F 57.2 °F 73% 29.68 in 6.2 mi WSW 23.0 mph - N/A   Scattered Clouds
3:20 PM 66.2 °F 55.4 °F 68% 29.68 in 6.2 mi SW 24.2 mph - N/A   Scattered Clouds
3:50 PM 64.4 °F 55.4 °F 73% 29.68 in 6.2 mi WSW 21.9 mph - N/A   Scattered Clouds
4:20 PM 64.4 °F 53.6 °F 68% 29.68 in 6.2 mi SW 20.7 mph - N/A   Scattered Clouds
4:50 PM 64.4 °F 53.6 °F 68% 29.68 in 6.2 mi SW 23.0 mph - N/A   Scattered Clouds
5:00 PM 64 °F 55 °F 64% 29.71 in 12 mi SW 21.9 mph - -   Mostly Cloudy
5:20 PM 62.6 °F 53.6 °F 72% 29.71 in 6.2 mi SW 23.0 mph - N/A   Mostly Cloudy
5:50 PM 62.6 °F 53.6 °F 72% 29.71 in 6.2 mi SW 21.9 mph - N/A   Mostly Cloudy
6:20 PM 60.8 °F 51.8 °F 72% 29.71 in 6.2 mi SW 19.6 mph - N/A   Mostly Cloudy
6:50 PM 60.8 °F 51.8 °F 72% 29.71 in 6.2 mi SW 19.6 mph - N/A   Mostly Cloudy
7:20 PM 60.8 °F 51.8 °F 72% 29.71 in 6.2 mi SW 19.6 mph - N/A   Mostly Cloudy
7:50 PM 60.8 °F 51.8 °F 72% 29.71 in 6.2 mi SW 20.7 mph - N/A   Mostly Cloudy
8:00 PM 60 °F 52 °F 67% 29.71 in 19 mi SW 18.4 mph - -   Partly Cloudy
8:20 PM 59.0 °F 51.8 °F 77% 29.68 in 6.2 mi SW 19.6 mph - N/A   Mostly Cloudy
8:50 PM 59.0 °F 51.8 °F 77% 29.68 in 6.2 mi SSW 16.1 mph - N/A   Mostly Cloudy
9:20 PM 59.0 °F 51.8 °F 77% 29.68 in 6.2 mi SSW 16.1 mph - N/A   Mostly Cloudy
9:50 PM 59.0 °F 51.8 °F 77% 29.68 in 6.2 mi SSW 15.0 mph - N/A   Mostly Cloudy
10:20 PM 59.0 °F 51.8 °F 77% 29.68 in 6.2 mi SSW 16.1 mph - N/A   Mostly Cloudy
10:50 PM 57.2 °F 51.8 °F 82% 29.68 in 6.2 mi SSW 17.3 mph - N/A   Mostly Cloudy
11:00 PM 58 °F 53 °F 76% 29.70 in 12 mi SSW 15.0 mph - -   Overcast
11:20 PM 57.2 °F 51.8 °F 82% 29.68 in 6.2 mi SSW 15.0 mph - N/A   Mostly Cloudy
11:50 PM 57.2 °F 53.6 °F 88% 29.68 in 6.2 mi SSW 15.0 mph - N/A   Mostly Cloudy